AirNav   Jet Aviation Boston
 
 963 users online  

MA45 Simmons Heliport
Hanover, Massachusetts, USA

GOING TO HANOVER?


FAA INFORMATION EFFECTIVE 24 MAY 2018

Location

FAA Identifier: MA45
Lat/Long: 42-07-30.3640N / 070-50-35.1520W
42-07.506067N / 070-50.585867W
42.1251011 / -70.8430978
(estimated)
Elevation: 90 ft. / 27 m (estimated)
Variation: 16W (1985)
From city: 1 mile N of HANOVER, MA
Time zone: UTC -4 (UTC -5 during Standard Time)
Zip code: 02339

Heliport Operations

Heliport use: Private use. Permission required prior to landing
Activation date: 01/1975
Control tower: no
ARTCC: BOSTON CENTER
FSS: BRIDGEPORT FLIGHT SERVICE STATION
Attendance: UNATNDD
Wind indicator: yes
Segmented circle: no

Heliport Communications

WX AWOS-3 at GHG (8 nm E): 120.0 (781-837-0555)
WX ASOS at PYM (14 nm S): 135.625 (508-746-8003)
WX ASOS at OWD (15 nm W): PHONE 781-762-4314
WX ASOS at BOS (16 nm NW): PHONE 617-567-5762
WX ASOS at TAN (17 nm SW): 132.675 (508-824-5005)

Nearby radio navigation aids

VOR radial/distance  VOR name  Freq  Var
BOSr171/15.4BOSTON VOR/DME112.7016W
PVDr061/35.5PROVIDENCE VOR/DME115.6014W
LFVr296/36.5MARCONI VOR/DME114.7016W
LWMr178/38.6LAWRENCE VOR/DME112.5015W

 
NDB name  Hdg/Dist  Freq  Var  ID
MARSHFIELD298/7.636816WIMR .. -- .-.
STOGE104/12.739715WOW --- .--
TAUNTON043/16.822716WTAN - .- -.
SHAKER HILL159/24.825116WSKR ... -.- .-.
PROVINCETOWN293/27.838916WPVC .--. ...- -.-.

Heliport Services

Airframe service: NONE
Powerplant service: NONE

Runway Information

Helipad H1

Dimensions: 50 x 50 ft. / 15 x 15 m
Surface: concrete
Latitude: 42-07.506067N
Longitude: 070-50.585867W
Elevation: 90.0 ft.
Traffic pattern: leftleft

Heliport Ownership and Management from official FAA records

Ownership: Privately-owned
Owner: STEVEN E SIMMONS
SILVER ST
HANOVER, MA 02339
Phone 617-826-4735

Heliport Operational Statistics

Aircraft based on the field: 1
Helicopters: 1
    

Instrument Procedures

There are no published instrument procedures at MA45.

Some nearby airports with instrument procedures:

KGHG - Marshfield Municipal Airport - George Harlow Field (8 nm E)
KPYM - Plymouth Municipal Airport (14 nm S)
KOWD - Norwood Memorial Airport (15 nm W)
KBOS - General Edward Lawrence Logan International Airport (16 nm NW)
KTAN - Taunton Municipal Airport - King Field (17 nm SW)
1B9 - Mansfield Municipal Airport (17 nm SW)
 
Loc | Ops | Rwys | IFR | FBO | Links
Com | Nav | Svcs | Stats | Notes

AirNav Hotels Sweepstakes
 
Area around MA45 (Simmons Heliport)
 
Road maps at: MapQuest Bing Google
 
Aerial photo
No photo
 
Sectional chart

 
Airport distance calculator
Flying to Simmons Heliport? Find the distance to fly.

From to MA45

Sunrise and sunset
Times for 26-May-2018
 Local
(UTC-4)
 Zulu
(UTC)
Morning civil twilight04:4108:41
Sunrise05:1409:14
Sunset20:0700:07
Evening civil twilight20:4000:40

Current date and time
Zulu (UTC)  26-May-2018 19:25:33
Local (UTC-4)  26-May-2018 15:25:33
 
METAR
KGHG 
8nm E 
261855Z AUTO 00000KT 10SM CLR 33/13 A2974 RMK AO2
KMQE 
13nm NW 
261856Z AUTO 30007KT 30/14 A2977 RMK AO1 SLP087 T03000139
KPYM 
13nm S 
261852Z AUTO 27012KT 10SM CLR 33/10 A2975 RMK AO2 SLP074 T03280100
KOWD 
15nm W 
261853Z VRB06KT 10SM CLR 32/14 A2975 RMK AO2 SLP073 T03220139
KBOS 
16nm NW 
261854Z 27011KT 10SM FEW085 FEW130 BKN220 OVC280 31/12 A2975 RMK AO2 SLP073 T03060117
KTAN 
16nm SW 
261852Z AUTO 24007KT 10SM CLR 33/14 A2974 RMK AO2 SLP071 T03280139
TAF
KBOS 
16nm NW 
261743Z 2618/2724 26009KT P6SM FEW040 BKN250 FM262100 29010G17KT P6SM BKN250 FM262300 03016G25KT P6SM VCSH OVC050 FM270300 06010KT 4SM BR VCSH OVC010 FM270700 07012G22KT 3SM BR OVC008 FM271300 07012G21KT 5SM BR OVC010 FM271600 07012G20KT P6SM OVC010 FM272100 06012G19KT P6SM VCSH OVC010
NOTAMs
Click for the latest NOTAMs
NOTAMs are issued by the DoD/FAA and will open in a separate window not controlled by AirNav.

 

 
 

Would you like to see your business listed on this page?

 If your business provides an interesting product or service to pilots, flight crews, aircraft, or users of the Simmons Heliport, you should consider listing it here.  To start the listing process, click on the button below
 
Add a business
 

Other Pages about Simmons Heliport

Update a link
 
Copyright © AirNav, LLC. All rights reserved. Privacy Policy  Contact